This demonstration page uses our WeatherBlox Daily Observations layout. Learn more.

Left ArrowRight Arrow

Hourly Observations for April 17, 2022

Temp ( °F °C ) Dew Point ( °F °C ) Humidity (%) Winds ( mph kmh ) Pressure ( in mb ) Visibility ( mi km ) Precip ( " mm )
12:53 am 00:53 Cloudy 42 5.6 12 -11.1 29 29 ESE 8 13 30.17 1022 10 16 0.00 0.00
1:53 am 01:53 Cloudy 41 5 14 -10 33 33 ESE 7 11 30.13 1020 10 16 0.00 0.00
2:53 am 02:53 Cloudy 41 5 14 -10 33 33 SE 7 11 30.12 1020 10 16 0.00 0.00
3:53 am 03:53 Cloudy 41 5 15 -9.4 35 35 SSE 8 13 30.11 1020 10 16 0.00 0.00
4:53 am 04:53 Cloudy 41 5 15 -9.4 35 35 SE 10 17 30.09 1019 10 16 0.00 0.00
5:53 am 05:53 Cloudy 40 4.4 16 -8.9 38 38 E 6 9 30.11 1020 10 16 0.00 0.00
6:53 am 06:53 Cloudy 40 4.4 16 -8.9 38 38 E 9 15 30.10 1019 10 16 0.00 0.00
7:53 am 07:53 Cloudy 40 4.4 17 -8.3 40 40 ESE 7 11 30.12 1020 10 16 0.00 0.00
8:53 am 08:53 Cloudy 40 4.4 19 -7.2 43 43 SE 13 20 30.13 1020 10 16 0.00 0.00
9:53 am 09:53 Cloudy 41 5 21 -6.1 45 45 SE 14 22 30.11 1020 10 16 0.00 0.00
10:53 am 10:53 Cloudy 43 6.1 24 -4.4 47 47 SE 15 24 30.12 1020 10 16 0.00 0.00
11:53 am 11:53 Sunny 46 7.8 27 -2.8 47 47 SSE 12 19 30.10 1019 10 16 0.00 0.00
12:53 pm 12:53 Sunny 49 9.4 28 -2.2 44 44 SSE 13 20 30.09 1019 10 16 0.00 0.00
1:53 pm 13:53 Sunny 52 11.1 29 -1.7 41 41 SSW 12 19 30.06 1018 10 16 0.00 0.00
2:53 pm 14:53 Sunny 54 12.2 30 -1.1 40 40 Calm 30.04 1017 10 16 0.00 0.00
3:53 pm 15:53 Sunny 58 14.4 30 -1.1 35 35 VRB 6 9 30.02 1017 10 16 0.00 0.00
4:53 pm 16:53 Sunny 59 15 30 -1.1 33 33 ESE 6 9 30.00 1016 10 16 0.00 0.00
5:53 pm 17:53 Sunny 59 15 31 -0.6 35 35 ESE 8 13 30.00 1016 10 16 0.00 0.00
6:53 pm 18:53 Partly Cloudy 57 13.9 32 0 39 39 SE 14 22 30.01 1016 10 16 0.00 0.00
7:53 pm 19:53 Cloudy 51 10.6 33 0.6 50 50 SE 20 31 30.04 1017 10 16 0.00 0.00
8:53 pm 20:53 Cloudy 47 8.3 33 0.6 59 59 E 12 19 30.13 1020 10 16 0.00 0.00
9:53 pm 21:53 Cloudy 45 7.2 32 0 61 61 ENE 8 13 30.22 1024 10 16 0.00 0.00
10:53 pm 22:53 Partly Cloudy 41 5 31 -0.6 67 67 E 6 9 30.24 1024 10 16 0.00 0.00
11:53 pm 23:53 Mostly Cloudy 37 2.8 29 -1.7 73 73 NE 6 9 30.28 1025 9 14 0.00 0.00

Powered by AerisWeather